This is the latest recevied weather packets stored in our database for station/object BMCB-1. If no packets are shown the sender has not sent any weather packets the latest 10 day(s).
| Time | Temp. | Humidity | Pressure | Rain* | Wind** | Luminosity | Snow |
|---|---|---|---|---|---|---|---|
| 1778007022 | 9.44° C | 98% | 1012.8 hPa | 2.29 mm | - | 2 W/m² | - |
| 1778001633 | 9.44° C | 99% | 1012.8 hPa | 0.76 mm | - | 24 W/m² | - |
| 1777998045 | 9.44° C | 99% | 1013 hPa | 0 mm | - | 36 W/m² | - |
| 1777997444 | 10° C | 99% | 1013 hPa | 0 mm | - | 42 W/m² | - |
| 1777995647 | 10° C | 99% | 1013 hPa | 0 mm | - | 50 W/m² | - |
| 1777993832 | 10° C | 99% | 1013.2 hPa | 0 mm | - | 66 W/m² | - |
| 1777989047 | 10.56° C | 98% | 1013.2 hPa | 0 mm | - | 104 W/m² | - |
| 1777988439 | 10.56° C | 98% | 1013.2 hPa | 0 mm | - | 120 W/m² | - |
| 1777987839 | 10.56° C | 98% | 1013.2 hPa | 0 mm | - | 122 W/m² | - |
| 1777980023 | 11.11° C | 98% | 1013.9 hPa | 0 mm | - | 172 W/m² | - |
| 1777979422 | 11.11° C | 98% | 1014 hPa | 0 mm | - | 114 W/m² | - |
| 1777977645 | 11.11° C | 98% | 1014.2 hPa | 0 mm | - | 94 W/m² | - |
| 1777976441 | 11.11° C | 98% | 1014.3 hPa | 0 mm | - | 132 W/m² | - |
| 1777972835 | 10.56° C | 99% | 1014.3 hPa | 0.25 mm | - | 106 W/m² | - |
| 1777972244 | 10.56° C | 99% | 1014.3 hPa | 0.25 mm | - | 100 W/m² | - |
| 1777967433 | 11.11° C | 99% | 1014.5 hPa | 0.51 mm | - | 56 W/m² | - |
| 1777966822 | 11.11° C | 99% | 1014.4 hPa | 0.76 mm | - | 52 W/m² | - |
| 1777966232 | 11.11° C | 98% | 1014.4 hPa | 0.76 mm | - | 58 W/m² | - |
| 1777965634 | 11.67° C | 99% | 1014.4 hPa | 0.76 mm | - | 94 W/m² | - |
| 1777963841 | 11.11° C | 99% | 1014.6 hPa | 0.51 mm | - | 18 W/m² | - |
| 1777962023 | 11.67° C | 98% | 1014.6 hPa | 0.25 mm | - | 22 W/m² | - |
| 1777960831 | 11.67° C | 98% | 1014.5 hPa | 0.51 mm | - | 16 W/m² | - |
| 1777956624 | 11.11° C | 98% | 1014.5 hPa | 0.25 mm | - | 18 W/m² | - |
| 1777956031 | 11.11° C | 98% | 1014.6 hPa | 0.25 mm | - | 8 W/m² | - |
| 1777951223 | 11.11° C | 98% | 1015.1 hPa | 0 mm | - | 0 W/m² | - |
* Rain latest hour (hover to see other rain measurements)
** Current wind speed in m/s (hover to see current wind gust speed)